Hourly Data Report for June 13, 2021

TORONTO CITY
ONTARIO
Current Station Operator: ECCC - MSC

43°40'00.000" N
79°24'00.000" W
112.50 m
6158355
71508
XTO

Download Data

Hourly Data (June 2021)
Hourly Data Report for June 13, 2021
TIME
LST
Temp Definition
°C
Dew Point Definition
°C
Rel Hum Definition
%
Precip. Amount Definition
mm

Wind Dir Definition
10's deg

Wind Spd Definition
km/h
Visibility Definition
km
Stn Press Definition
kPa
Hmdx Definition


Wind Chill Definition


Weather Definition


00:00 20.2 7.1 42 0.0       99.75     LegendNANA
01:00 20.8 8.7 46 0.0       99.75     LegendNANA
02:00 20.8 7.7 43 0.0       99.73     LegendNANA
03:00 21.1 8.5 44 0.0       99.72     LegendNANA
04:00 20.8 8.9 46 0.0       99.75     LegendNANA
05:00 17.0 15.4 91 2.4       99.80     LegendNANA
06:00 17.8 13.9 78 0.0       99.80     LegendNANA
07:00 19.0 13.5 71 0.0       99.76     LegendNANA
08:00 21.7 13.6 60 0.0       99.77 25   LegendNANA
09:00 22.5 11.1 48 0.0       99.79     LegendNANA
10:00 24.6 11.6 44 0.0       99.76 27   LegendNANA
11:00 26.3 14.0 47 0.0       99.72 30   LegendNANA
12:00 26.4 13.5 45 0.0       99.69 29   LegendNANA
13:00 26.5 14.1 46 0.0       99.64 30   LegendNANA
14:00 23.1 15.7 63 0.4       99.60 28   LegendNANA
15:00 24.7 15.4 56 0.0       99.52 29   LegendNANA
16:00 23.5 17.2 68 0.6       99.48 29   LegendNANA
17:00 23.4 17.0 67 0.0       99.44 29   LegendNANA
18:00 22.3 18.6 80 0.8       99.43 29   LegendNANA
19:00 22.6 18.8 79 0.0       99.46 29   LegendNANA
20:00 23.6 15.2 59 0.0       99.51 28   LegendNANA
21:00 22.5 13.4 56 0.0       99.57 26   LegendNANA
22:00 20.5 13.2 63 0.0       99.58     LegendNANA
23:00 19.1 13.6 70 0.0       99.52     LegendNANA

Notes on Data Quality.

Legend

  • E = Estimated
  • M = Missing
  • NA = Not Available*
  • [empty] = Indicates an unobserved value
Date modified: